GW0085 Weather Reports


time (UTC)temp
F
wind
direction
speed
knots
gust
knots
rain 1hr
in
rain 24hr
in
rain mn
in
humidity
%
barometer
mb
20260504231557 57 161 1.7 3.5 0.00 0.01 0.01 70 1005.8
20260504230056 59 0 0.0 1.7 0.00 0.01 0.01 66 1005.6
20260504224556 59 232 0.9 2.6 0.00 0.01 0.01 61 1005.4
20260504223102 60 246 0.0 5.2 0.00 0.01 0.01 60 1005.3
20260504221608 60 271 1.7 6.1 0.00 0.01 0.01 59 1005.3
20260504220136 60 277 2.6 9.6 0.00 0.01 0.01 58 1005.2
20260504214554 61 196 4.3 8.7 0.00 0.01 0.01 58 1005.0
20260504213117 62 198 2.6 7.8 0.00 0.01 0.01 59 1004.9
20260504211557 62 171 2.6 10.4 0.00 0.01 0.01 59 1005.0
20260504204611 62 269 2.6 8.7 0.00 0.01 0.01 60 1005.0
20260504203057 62 136 3.5 7.8 0.00 0.01 0.01 58 1004.7
20260504201608 62 236 1.7 13.9 0.00 0.01 0.01 61 1004.8
20260504200109 60 217 3.5 10.4 0.00 0.01 0.01 62 1004.9
20260504194559 60 198 4.3 8.7 0.00 0.04 0.01 65 1004.7
20260504193059 58 260 5.2 9.6 0.00 0.04 0.01 68 1004.9
20260504191556 56 259 1.7 7.0 0.01 0.04 0.01 76 1005.2
20260504190057 54 0 2.6 7.8 0.01 0.04 0.01 80 1005.4
20260504184601 52 254 2.6 7.8 0.01 0.11 0.01 80 1005.7
20260504183104 52 189 1.7 10.4 0.01 0.11 0.01 76 1006.0
20260504181604 54 259 3.5 10.4 0.00 0.10 0.00 69 1006.1
20260504180100 56 263 2.6 7.8 0.00 0.10 0.00 63 1005.7
20260504174556 55 193 3.5 9.6 0.00 0.17 0.00 59 1005.4
20260504173101 54 242 5.2 9.6 0.00 0.17 0.00 61 1005.3
20260504171558 55 187 7.0 14.8 0.00 0.17 0.00 60 1005.4
20260504081557 31 300 0.9 2.6 0.00 0.89 0.00 93 1006.4
20260504044556 34 0 0.9 1.7 0.00 1.00 0.00 90 1005.1
20260504043059 35 343 0.9 1.7 0.00 1.00 0.00 89 1005.1
20260504041557 35 343 0.9 1.7 0.00 1.00 0.00 88 1004.9
20260504040058 36 344 0.0 1.7 0.00 1.00 0.00 88 1004.9
20260504034555 36 344 0.0 1.7 0.00 1.00 1.00 87 1004.7
20260504033059 37 0 0.9 1.7 0.00 1.00 1.00 85 1004.7
20260504031557 38 280 0.9 2.6 0.00 1.00 1.00 83 1004.5
20260504030056 39 300 0.9 7.8 0.00 1.00 1.00 80 1004.4
20260504024558 39 349 1.7 7.0 0.00 1.00 1.00 80 1004.2
20260504023056 39 299 0.9 7.0 0.00 1.00 1.00 80 1004.1
20260504021557 40 302 0.9 6.1 0.00 1.00 1.00 81 1004.0
20260504020131 40 301 1.7 7.0 0.00 1.00 1.00 83 1004.1
20260504014604 41 286 2.6 7.0 0.00 1.00 1.00 85 1003.9
20260504013116 41 288 0.9 6.1 0.00 1.00 1.00 86 1003.7
20260504011558 41 299 0.9 7.0 0.00 1.00 1.00 89 1003.4
20260504010057 41 276 0.9 2.6 0.00 1.00 1.00 92 1003.1
20260504004630 42 296 0.0 3.5 0.00 1.00 1.00 91 1002.9
20260504003101 43 309 0.0 0.9 0.00 1.00 1.00 91 1002.5
20260504001621 44 0 0.0 1.7 0.00 1.00 1.00 90 1002.3
20260504000120 45 0 0.0 3.5 0.00 1.00 1.00 89 1002.1
20260503234606 45 300 0.9 5.2 0.00 1.00 1.00 87 1001.9
20260503233103 45 323 1.7 7.0 0.00 1.00 1.00 87 1001.8